Retour au catalogue

M-3H DEB

ActifHEO
NORAD 27731·DEBRIS·🇯🇵 Japan

Lancé Sep 16, 1978 depuis Uchinoura Space Center

Loading…

Prochains Passages (prochaines 24 heures)

TLE

FraisSource: Space-Track

Époque: Sep 9, 2026, 02:06 UTC

1 27731U 78087C   26252.08797543  .00025452  00000-0  10936-2 0  9999
2 27731  31.3533 150.2147 4049084 198.1518 335.6370  7.37999627257046

Suivez M-3H DEB en temps réel avec AllMySat

Download on the App Store